Starlink 34521

operational
NORAD ID: 64612 Int'l Des: 2025-137 Owner: SPXS Country: US Constellation: starlink
LEOCIRCULAR

About Starlink 34521

Description loading...

Live Position

Loading 3D Globe...

Upcoming Passes

Altitude History

Altitude vs Time

uPlot chart will show altitude changes over time

Two-Line Element Set

1 64612U 25137U 25278.48606545 .00040646 00000-0 10212-2 0 9997
2 64612 53.1584 342.4557 0001102 92.8770 267.2361 15.39607186 16880
Epoch: Oct 5, 2025 • Age: 21 hours

Current Status

Altitude 452.3 km
Velocity 7.65 km/s
Sub-Earth Point 50.59°N, 95.36°W
Launch Date Jun 25, 2025
Age 0.2 years
Type internet

Technical Details

Classification Payload
Mass 575.00 kg
Dry Mass 530.00 kg
Total Mass 575.00 kg
Length 0.30 m
Diameter 4.10 m
Span 29.00 m
Shape Box + pan
Manufacturer SPXS
Bus Type Starlink V2MO
Phase Status In Orbit
Owner/State SPXS/US

Large Constellations

Loading constellations...